Location: Eiterbach
(49.5060°N, 8.8112°E)
Time: 11:22:56
(UTC+00:00)

Daily predictions for brighter satellites

Satellite Brightness Start Highest point End
(mag) Time Altitude Azimuth Time Altitude Azimuth Time Altitude Azimuth
Cosmos 1455 Rocket 3.1 19:31:52 10° S 19:36:14 70° E 19:40:37 10° NNE
Cosmos 1892 Rocket 3.5 19:31:56 10° N 19:36:18 85° E 19:40:35 10° S
USA 306 2.2 19:33:03 10° WSW 19:36:31 67° NNW 19:38:57 10° ENE
CZ-4B R/B 4.4 19:35:57 10° ESE 19:38:09 16° ENE 19:40:23 10° NNE
Okean O Rocket 2.1 19:34:58 10° SE 19:39:01 43° ENE 19:43:07 10° N
Cosmos 2100 Rocket 4.4 19:34:27 10° SSW 19:40:42 73° W 19:47:03 10° N
Meteor 1-27 4.2 19:36:31 10° S 19:42:07 72° E 19:47:41 10° NNE
Cosmos 2228 3.1 19:38:29 10° S 19:42:28 51° E 19:46:27 10° NNE
NOSS 3-4 (A) 4.5 19:36:45 10° NW 19:42:54 46° NE 19:50:07 10° ESE
SPOT 5 4.3 19:39:07 10° SSW 19:43:02 33° W 19:47:03 10° NNW
SL-24 R/B 4.3 19:38:54 10° NNE 19:43:12 83° WNW 19:47:55 10° SSW
SL-16 R/B 2.9 19:37:55 10° NNW 19:43:21 44° NE 19:48:45 10° SE
NOSS 3-4 (C) 4.5 19:37:22 10° NW 19:43:33 46° NE 19:50:46 10° ESE
USA 186 2.5 19:41:14 10° SE 19:43:39 28° ENE 19:46:05 10° N
Okean 1 Rocket 4.3 19:44:27 10° SSW 19:48:41 47° WNW 19:53:00 10° N
Cosmos 2084 Rocket 3.9 19:47:02 10° NW 19:51:09 54° SW 19:55:16 10° SSE
Cosmos 2233 Rocket 4.0 19:45:06 10° S 19:51:11 63° E 19:57:16 10° NNE
ATLAS 2AS CENTAUR R/B 4.4 19:45:55 10° W 19:52:16 37° NNW 19:58:33 10° NE
SKYMED 3 4.3 19:53:20 10° NNE 19:57:17 79° ESE 20:01:16 10° S
CZ-2C R/B 4.4 19:56:30 10° E 19:57:23 11° ENE 19:58:16 10° NE
COSMOS 2406 3.6 19:53:00 10° S 19:58:21 43° ESE 20:03:45 10° NE
Cosmos 1980 Rocket 3.3 19:53:34 10° NW 19:58:52 41° WSW 20:04:08 10° S
Okean-O 2.7 19:55:28 10° SSE 19:59:47 68° ENE 20:04:09 10° N
Cosmos 1782 2.6 19:56:21 10° SSW 19:59:52 80° W 20:03:25 10° N
CZ-4 R/B 3.0 19:57:08 10° SSW 20:00:18 28° W 20:03:30 10° NW
Ariane Rocket 3.9 19:58:02 10° SE 20:02:30 34° ENE 20:07:03 10° N
Cosmos 1933 4.3 20:02:11 11° SSE 20:05:12 27° E 20:08:28 10° NNE
SPOT 3 Rocket 4.1 20:01:10 11° SE 20:05:54 45° ENE 20:10:47 10° N
Cosmos 1758 Rocket 3.8 20:02:14 10° N 20:06:34 54° ENE 20:10:37 12° SSE
Spot 2 Rocket 3.5 20:02:44 10° SSE 20:07:46 88° ENE 20:12:49 10° NNW
Cosmos 1725 Rocket 4.3 20:03:40 10° SSW 20:09:55 71° WNW 20:16:10 10° N
Cosmos 2333 Rocket 2.5 20:05:37 10° NNW 20:11:17 60° ENE 20:16:16 13° SE
ERS-1 Rocket 4.1 20:09:13 10° SSW 20:13:56 42° W 20:18:43 10° NNW
Tsikada Rocket 4.1 20:12:12 10° NNW 20:18:22 76° W 20:24:29 10° S
USA 245 4.3 20:19:40 12° SSE 20:25:04 71° ENE 20:30:35 10° N
Cosmos 2360 Rocket 2.8 20:19:39 10° NNW 20:25:09 47° NE 20:29:39 15° ESE
Cosmos 1461 2.7 20:22:42 10° SSW 20:26:17 50° ESE 20:29:52 10° NE
CZ-4B R/B 4.3 20:21:39 10° S 20:27:01 44° W 20:32:22 10° NNW
CZ-4B R/B 3.6 20:25:36 16° SE 20:29:20 57° ENE 20:34:06 10° N
CZ-4C R/B 3.7 20:26:08 10° W 20:30:21 35° NNW 20:35:44 10° NE
Cosmos 1602 Rocket 3.8 20:26:32 10° N 20:30:47 54° ENE 20:33:50 18° SSE
Cosmos 1992 Rocket 4.0 20:25:43 10° SSW 20:30:56 85° WNW 20:36:11 10° NNE
YAOGAN 11 4.2 20:29:32 10° NNE 20:34:00 86° WNW 20:38:28 10° SSW
ISS -3.2 20:33:58 10° W 20:37:17 58° N 20:40:36 10° ENE
Cosmos 1777 Rocket 4.3 20:32:21 10° NNW 20:37:30 55° ENE 20:41:09 19° SE
Cosmos 2219 Rocket 3.1 20:33:12 10° NNW 20:38:31 40° NE 20:42:48 15° ESE
Meteor 1-25 Rocket 4.2 20:33:46 10° N 20:39:27 73° ENE 20:43:46 17° SSE
Cosmos 220 Rocket 4.1 20:36:01 12° S 20:39:31 48° ESE 20:43:29 10° NNE
Cosmos 1437 Rocket 2.4 20:36:40 13° S 20:39:44 73° E 20:43:20 10° NNE
USA 290 3.6 20:39:46 20° ESE 20:39:51 20° ESE 20:42:14 10° NE
SL-08 R/B 4.3 20:39:34 10° N 20:44:14 50° WNW 20:48:47 10° SW
Cosmos 1503 Rocket 4.4 20:40:57 10° NNW 20:46:01 50° ENE 20:49:23 20° SE
DEBRIS 3.6 20:43:47 10° W 20:47:01 89° S 20:57:27 10° E
Cosmos 1626 Rocket 4.1 20:42:51 10° NNW 20:47:08 55° W 20:51:00 12° S
Cosmos 2098 Rocket 3.4 20:44:23 18° SSE 20:47:39 50° E 20:51:42 10° NNE
Cosmos 1076 Rocket 4.5 20:45:32 10° N 20:49:24 33° ENE 20:51:27 21° ESE
NOSS 3-3 (A) 4.2 20:44:20 10° SW 20:49:35 66° NW 20:55:58 10° NE
Terra 4.0 20:48:14 10° SW 20:51:47 21° W 20:55:22 10° NW
Cosmos 2151 3.3 20:51:05 10° NNW 20:55:08 60° W 20:58:09 17° S
Cosmos 2322 Rocket 2.2 20:51:22 10° NNW 20:57:04 81° ENE 21:00:46 23° SSE
Cosmos 1486 Rocket 4.0 20:51:53 10° NNW 20:57:11 86° ENE 21:00:35 23° SSE
Cosmos 1513 Rocket 4.4 20:51:10 10° S 20:57:22 83° E 21:03:31 10° N
IRS-1C Rocket 4.1 20:53:40 19° SSE 20:57:30 88° WSW 21:02:49 10° NNW
Cosmos 1464 Rocket 4.1 20:53:50 17° SSE 20:58:32 60° E 21:04:37 10° NNE
Cosmos 2082 Rocket 3.7 20:56:11 10° WSW 21:01:33 40° NW 21:06:55 10° NNE
USA 306 3.6 21:01:23 10° WNW 21:03:35 22° NNW 21:04:50 13° NE
Cosmos 1606 Rocket 3.6 21:03:17 25° SSE 21:05:33 56° E 21:09:48 10° NNE
Meteor 2-10 4.2 20:59:50 10° N 21:05:36 77° ENE 21:09:14 23° SSE
CZ-4B R/B 3.4 21:09:42 21° SSW 21:11:34 40° W 21:14:53 10° NNW
Cosmos 1766 4.2 21:09:46 10° NNE 21:12:28 24° ENE 21:13:02 23° E
USA 186 4.2 21:11:39 10° WSW 21:13:06 13° W 21:14:32 10° WNW
Cosmos 1726 Rocket 3.7 21:12:34 32° SSE 21:14:03 48° E 21:17:57 10° NNE
Cosmos 2237 Rocket 4.4 21:10:47 10° N 21:14:31 17° NE 21:18:13 10° ENE
Cosmos 1428 Rocket 4.5 21:09:03 10° N 21:15:18 77° E 21:19:09 25° SSE
Okean O Rocket 3.6 21:12:01 10° SW 21:15:24 22° W 21:18:48 10° NW
Cosmos 540 Rocket 3.9 21:13:17 26° SSE 21:15:36 43° ESE 21:20:27 10° NE
Cosmos 1072 Rocket 4.5 21:11:32 16° S 21:16:44 86° E 21:23:08 10° N
Cosmos 1092 Rocket 4.5 21:11:08 10° N 21:17:04 46° ENE 21:20:29 24° SE
Aureole 1 Rocket 4.5 21:13:05 10° NNW 21:18:33 48° ENE 21:22:39 22° SE
Cosmos 1805 3.4 21:17:57 10° NNW 21:21:08 51° W 21:22:21 31° SSW
Cosmos 2278 4.3 21:17:27 10° NW 21:22:58 51° WSW 21:26:23 22° S
Meteor 1-5 Rocket 4.4 21:19:53 10° NNW 21:25:37 72° W 21:29:21 23° S
COSMOS 2428 3.9 21:21:09 10° NNW 21:26:19 34° NE 21:30:13 16° ESE
SL-16 R/B 3.2 21:22:11 10° NW 21:27:22 37° WSW 21:30:55 18° SSW
CZ-2C R/B 2.9 21:27:14 34° SW 21:27:47 39° W 21:30:26 10° NNW
Okean 1-7 Rocket 3.8 21:23:50 10° NNW 21:28:17 66° W 21:30:35 28° S
Geosat 4.3 21:28:28 10° NE 21:33:18 46° ESE 21:35:08 32° SSE
NOSS 3-4 (A) 4.0 21:27:28 10° NW 21:34:07 62° SW 21:38:39 26° SSE
NOSS 3-4 (C) 4.0 21:28:06 10° NW 21:34:46 62° SW 21:39:17 26° SSE
Cosmos-2242 3.3 21:34:03 38° SE 21:35:02 45° E 21:38:59 10° NNE
Cosmos 2034 Rocket 4.0 21:32:54 24° S 21:36:55 77° E 21:43:16 10° NNE
Ariane Rocket 4.0 21:38:06 18° SSW 21:41:19 38° W 21:46:03 10° NNW
USA 234 4.3 21:42:16 10° ENE 21:47:10 23° SE 21:47:10 23° SE
TSX-5 4.1 21:46:33 10° NNW 21:49:32 40° NE 21:50:06 36° E
Nadezhda 4 Rocket 4.5 21:46:27 10° NNW 21:52:23 53° W 21:56:13 22° SSW
Cosmos 2333 Rocket 3.7 21:50:31 10° NW 21:55:11 26° WSW 21:58:17 17° SSW
Helios 1B rocket 2.2 21:55:11 52° ESE 21:55:39 58° ENE 21:59:07 10° N
Cosmos 1763 Rocket 3.5 21:53:12 22° SSW 21:56:41 82° WNW 22:01:59 10° NNE
Okean 1 4.0 21:56:18 28° SW 21:57:43 43° WNW 22:01:11 10° N
Cosmos 1470 3.4 21:55:05 10° N 21:58:06 32° ENE 21:58:12 32° ENE
Cosmos 1536 2.5 21:54:58 10° N 21:58:40 72° E 21:59:12 60° SE
Cosmos 2221 3.7 21:59:07 26° E 21:59:29 26° E 22:02:59 10° NNE
Cosmos 1707 2.2 21:59:51 65° N 21:59:51 65° N 22:02:20 10° N
Cosmos 1898 Rocket 4.0 21:54:44 10° NNW 21:59:48 51° ENE 22:02:03 30° ESE
Cosmos 1634 Rocket 4.0 21:57:45 33° SSE 22:00:36 67° E 22:06:46 10° NNE
CSL-04 DEB 4.2 22:01:35 53° ESE 22:02:04 60° ENE 22:05:41 10° N
Cosmos 1833 4.2 21:57:58 18° SSW 22:02:13 83° WNW 22:07:54 10° NNE
Cosmos 2297 Rocket 3.8 22:01:44 18° ESE 22:02:15 18° E 22:05:52 10° ENE
Cosmos 1953 Rocket 3.9 21:59:17 10° NNW 22:03:33 57° W 22:04:56 38° SSW
CZ-2C R/B 4.3 21:59:22 10° NNE 22:03:34 38° E 22:04:14 36° ESE
Cosmos 44 3.4 21:59:31 10° NW 22:04:57 83° SW 22:06:56 40° SSE
Cosmos 990 Rocket 4.3 21:59:55 10° NNW 22:04:58 55° WSW 22:06:54 35° SSW
Cosmos 2360 Rocket 3.3 22:03:55 10° NW 22:08:59 34° WSW 22:11:23 24° SSW
Meteor 2-6 Rocket 4.5 22:08:15 36° SSE 22:10:36 61° E 22:16:28 10° NNE
Cosmos 2322 3.8 22:05:34 10° NNW 22:11:16 69° ENE 22:13:46 34° SE
USA 290 4.2 22:12:10 17° WSW 22:13:49 27° WNW 22:16:34 10° N
ISS -3.8 22:10:54 10° WNW 22:14:16 83° NNE 22:14:19 82° NE
Cosmos 2026 Rocket 4.3 22:08:46 10° NNW 22:15:04 63° W 22:18:17 30° SSW
BREEZE-M DEB (TANK) 4.1 22:13:08 10° W 22:13:11 11° W 22:13:11 11° W
Cosmos 2058 Rocket 3.0 22:14:25 46° SSW 22:15:41 80° W 22:20:02 10° N
GP-B 4.5 22:14:27 10° NNE 22:18:05 25° E 22:18:52 23° E
Helios 1A 3.1 22:17:31 10° N 22:21:23 61° WNW 22:22:30 41° SW
Cosmos 2219 Rocket 2.9 22:17:11 10° NW 22:22:30 42° WSW 22:24:29 31° SSW
Cosmos 2266 Rocket 4.5 22:18:25 10° N 22:24:14 47° ENE 22:26:50 30° SE
KORONAS-FOTON 3.5 22:25:06 71° W 22:25:11 71° W 22:28:35 10° N
Cosmos 1975 2.8 22:21:34 10° N 22:25:12 55° ENE 22:25:24 53° E
Cosmos 841 Rocket 3.7 22:28:15 43° SE 22:29:22 51° ESE 22:34:27 10° NNE
RESURS DK-1 2.1 22:28:07 10° NNW 22:32:07 84° ENE 22:32:35 68° SE
ARIANE 5 R/B 2.6 22:32:16 54° SSE 22:33:15 81° ENE 22:37:44 10° NNW
ALOS 2 2.7 22:33:58 51° SE 22:34:55 70° ENE 22:39:18 10° N
Cosmos 2322 Rocket 4.0 22:36:34 10° WNW 22:40:24 19° W 22:42:34 15° SW
Cosmos 1271 Rocket 2.5 22:46:13 66° WNW 22:46:13 66° WNW 22:49:31 10° N
Cosmos 372 Rocket 4.2 22:41:43 10° NNW 22:46:41 53° WSW 22:47:53 43° SSW
SL-16 R/B 4.3 22:42:43 10° N 22:47:07 22° NE 22:51:32 10° E
Cosmos 1842 3.4 22:47:39 47° WNW 22:47:39 47° WNW 22:50:32 10° N
Lacrosse 4 Rocket 3.2 22:51:57 18° E 22:51:57 18° E 22:53:57 10° ENE
Spot 4 3.9 22:51:57 51° SSW 22:53:02 69° WSW 22:57:50 10° NNW
Meteor 2-9 Rocket 4.2 22:48:52 10° NNW 22:54:15 72° W 22:55:56 45° SSW
PSLV R/B 3.5 22:51:07 10° NNE 22:55:25 69° ESE 22:55:59 60° SSE
Cosmos 2237 Rocket 2.5 22:54:04 10° NNW 22:59:44 64° ENE 23:02:17 33° SE
CZ-2C R/B 3.1 22:58:57 32° ESE 23:01:02 50° ENE 23:06:03 10° N
BREEZE-M DEB (TANK) 4.1 22:46:28 10° WSW 23:01:42 88° SSE 23:05:28 10° ENE
Cosmos 1980 3.8 22:58:14 10° NNW 23:03:55 73° ENE 23:06:13 37° SE
ARGOS Delta rocket 4.0 22:59:40 10° N 23:04:51 83° WNW 23:06:31 45° SSW
Cosmos 858 Rocket 4.4 23:00:03 10° NNW 23:05:16 88° ENE 23:06:42 49° SSE
Cosmos 2142 Rocket 4.5 23:05:16 38° SSW 23:07:50 79° W 23:14:06 10° N
Cosmos 1937 Rocket 3.5 23:03:15 10° NNW 23:08:20 64° WSW 23:09:27 50° SSW
Cosmos 2180 Rocket 4.5 23:06:36 39° SSW 23:09:08 81° W 23:15:31 10° N
COSMOS 2428 3.0 23:05:16 10° NW 23:10:47 52° WSW 23:12:11 42° SSW
Cosmos 2227 Rocket 3.4 23:11:04 25° ESE 23:12:05 26° ESE 23:16:42 10° NE
Meteor 2-4 Rocket 4.2 23:11:49 37° SE 23:13:17 46° E 23:18:32 10° NNE
NOSS 0 Rocket 3.9 23:07:21 10° NW 23:13:28 66° WSW 23:15:26 43° S
Meteor 1-11 Rocket 3.7 23:08:24 10° NNW 23:14:05 75° W 23:15:45 46° S
MetOp-A 3.7 23:18:10 54° S 23:19:18 87° WSW 23:24:01 10° NNW
Meteor 1-10 Rocket 4.3 23:17:23 42° SSW 23:19:32 81° WNW 23:25:31 10° N
Cosmos 2263 Rocket 3.8 23:20:54 19° ESE 23:22:04 20° E 23:26:00 10° NE
Cosmos 1812 Rocket 3.9 23:25:18 46° WSW 23:26:10 55° WNW 23:30:32 10° N
Cosmos 1238 Rocket 2.9 23:25:54 60° ESE 23:26:11 62° E 23:30:28 10° NNE
USA 234 3.2 23:24:31 10° ENE 23:31:05 71° SE 23:34:29 31° SW
SeaSat 1 3.0 23:28:37 25° ESE 23:31:15 53° NE 23:36:01 10° NNW
CZ-2C R/B 3.3 23:27:58 10° NNE 23:33:47 87° ESE 23:35:48 44° SSW
Meteor 1-27 Rocket 3.7 23:32:34 44° S 23:34:31 89° ESE 23:40:18 10° NNE
ACS3 Solar Sail 2.7 23:29:31 10° NNE 23:35:00 36° E 23:37:20 27° SE
Cosmos 2221 3.7 23:35:23 28° W 23:36:22 32° WNW 23:40:11 10° N
ATLAS 2AS CENTAUR R/B 4.2 23:31:50 10° NW 23:37:59 34° NNE 23:44:05 10° E
Meteor 2-20 Rocket 4.2 23:37:28 45° S 23:39:21 83° E 23:45:06 10° NNE
BlueWalker 3 3.4 23:41:18 23° E 23:41:18 23° E 23:42:56 10° ENE
Cosmos 2297 Rocket 2.1 23:43:29 42° SW 23:45:31 84° WNW 23:51:13 10° NNE
Okean 3 Rocket 4.3 23:43:32 10° N 23:47:56 48° ENE 23:49:21 35° SE
Landsat 5 3.3 23:47:13 10° NNE 23:51:18 68° ESE 23:51:40 63° SE
Cosmos 1842 Rocket 3.6 23:53:33 56° SSE 23:54:18 69° E 23:58:42 10° NNE
GP-B 3.9 23:51:10 10° NNW 23:55:12 37° W 23:56:01 34° WSW
